Hourly Data Report for October 03, 2019

SHEARWATER RCS
NOVA SCOTIA
Current Station Operator: ECCC - MSC

44°37'47.000" N
63°30'48.000" W
24.00 m
8205092
71264
AAW

Download Data

Hourly Data (October 2019)
Hourly Data Report for October 3, 2019
TIME
LST
Temp Definition
°C
Dew Point Definition
°C
Rel Hum Definition
%
Precip. Amount Definition
mm

Wind Dir Definition
10's deg

Wind Spd Definition
km/h
Visibility Definition
km
Stn Press Definition
kPa
Hmdx Definition


Wind Chill Definition


Weather Definition


00:00 5.6 2.5 81 0.0 33 14   101.08     LegendNANA
01:00 5.1 2.5 83 0.0 33 11   101.12     LegendNANA
02:00 4.9 2.6 85 0.0 32 10   101.19     LegendNANA
03:00 4.7 2.7 87 0.0 32 10   101.22     LegendNANA
04:00 4.3 2.2 86 0.0 33 8   101.27     LegendNANA
05:00 4.3 1.9 85 0.0 32 13   101.33     LegendNANA
06:00 4.3 0.5 77 0.0 32 15   101.39     LegendNANA
07:00 4.2 0.2 75 0.0 32 12   101.44     LegendNANA
08:00 5.3 0.3 70 0.0 32 17   101.54     LegendNANA
09:00 6.8 -0.3 61 0.0 33 21   101.55     LegendNANA
10:00 8.1 -0.9 53 0.0 32 19   101.57     LegendNANA
11:00 9.6 -0.7 49 0.0 33 17   101.59     LegendNANA
12:00 9.9 -0.5 48 0.0 33 19   101.61     LegendNANA
13:00 10.5 -1.0 45 0.0 34 19   101.55     LegendNANA
14:00 10.6 -3.0 38 0.0 36 16   101.54     LegendNANA
15:00 10.8 -2.1 40 0.0 32 13   101.54     LegendNANA
16:00 11.1 -2.1 40 0.0 34 11   101.57     LegendNANA
17:00 10.6 -1.4 43 0.0 34 10   101.62     LegendNANA
18:00 8.4 -0.9 52 0.0 35 7   101.61     LegendNANA
19:00 7.3 -0.4 58 0.0 34 6   101.63     LegendNANA
20:00 6.8 0.2 63 0.0 34 4   101.62     LegendNANA
21:00 7.1 0.5 63 0.0 32 3   101.66     LegendNANA
22:00 6.8 1.9 71 0.0   0   101.65     LegendNANA
23:00 7.0 2.7 74 0.0 14 3   101.59     LegendNANA

Notes on Data Quality.

Legend

  • E = Estimated
  • M = Missing
  • NA = Not Available*
  • [empty] = Indicates an unobserved value
Date modified: